Location: Arlington
(40.6323°N, 74.1651°W)
Time: 05:31:31
(UTC+00:00)

GENESIS II - Pass Details

Date: 22 November 2019
Orbit: 478 x 551 km, 64.5° (Epoch: 07 December)

Event Time Altitude Azimuth Distance (km) Brightness Sun altitude
Rises 22:22:40 0° 210° (SSW) 2,651 8.6 -9.3°
Reaches altitude 10° 22:24:49 10° 209° (SSW) 1,777 7.7 -9.7°
Maximum altitude 22:28:49 84° 121° (ESE) 548 4.2 -10.5°
Drops below altitude 10° 22:32:55 10° 34° (NE) 1,822 6.5 -11.2°
Enters shadow 22:32:59 10° 34° (NE) 1,848 6.5 -11.2°
